"Pseudo-MPEC" for P21BhXT

Created 2022 Nov 25 13:22:23 UT using Find_Orb

Click here for an explanation of pseudo-MPECs

 
 Astrometry: 
     P21BhXT* C2022 10 31y:q5SE;N230GfH2W6p/\f,-5=AstrometryNNeAMZlb37$Jk48+\F52
     P21BhXT  C2022 10 31%In;@#x,0_u'hImcQ'Vm:GKVK=u_/v4)j*IG\/1A^9/b`smg)`[PF52
     P21BhXT  C2022 10 3128)g;lGredacted;k[P[?T]!=nBa,GY1hbqJ8]n@]clickd3*UH4F52
     P21BhXT  C2022 11 01kgBNh`Bd^pZhere+)kforNkbR^H,@+p-iU#qBFEd`AO%y\e]M9NiF52
     P21BhXT  C2022 11 01kfi9M0xwqg#MDtIDs4*;=,@pB+SexplanationIx\9i\\OFZM!*kF52

Station data:
(F52) Pan-STARRS 2, Haleakala  (N20.707382 W156.255910)  US/Hawaii.
   Observers J. Bulger, T. Dukes, T. Lowe, A. Schultz, M. Willman. Measurers
   K. Chambers, S. Chastel, T. de Boer, L. Denneau, J. Fairlamb, H.
   Flewelling, M. Huber, C.-C. Lin, E. Magnier, Y. Ramanjooloo, R. Wainscoat,
   R. Weryk. 1.8-m Ritchey-Chrétien + CCD.

Orbital elements:  P21BhXT
   Perihelion 2022 Nov 15.45741 +/- 56.1 TT = 10:58:40 (JD 2459898.95741)
Epoch 2022 Nov  1.0 TT = JDT 2459884.5   Earth MOID: 0.4937   AutoNEOCP
M 353.97474564 +/- 38               (J2000 ecliptic)
n   0.41675885 +/- 0.332            Peri.   52.88477 +/- 80
a   1.77505913 +/- 0.941            Node    15.19653 +/- 25
e   0.2019580 +/- 0.256             Incl.   26.69948 +/- 9
P   2.36/863.79d           H 20.5   G  0.15   U 12.0  SR
q 1.41657168 +/- 0.439    Q 2.13354658 +/- 23.2
From 5 observations 2022 Oct. 31-Nov. 1 (25.7 hr); mean residual 0".17
Residuals in arcseconds: 
221031 F52  .11-  .16+    221031 F52  .23+  .29-    221101 F52  .18-  .08-    
221031 F52  .11-  .12+    221101 F52  .18+  .09+    

Ephemerides (geocentric):
Date (UTC) HH   RA             Dec           delta  r     elong  mag " sig PA
---- --------  ------------   ------------  ------ ------ -----  --- --------
2022 11 25 13  07 12 10.529   +79 28 11.55  .65811 1.4181 117.7 21.9 377' 165
2022 11 25 14  07 12 15.295   +79 29 22.71  .65814 1.4181 117.7 21.9 378' 165
2022 11 25 15  07 12 20.051   +79 30 33.80  .65817 1.4181 117.7 21.9 379' 166
2022 11 25 16  07 12 24.797   +79 31 44.81  .65821 1.4181 117.7 21.9 380' 166
2022 11 25 17  07 12 29.532   +79 32 55.75  .65824 1.4181 117.7 21.9 381' 166
2022 11 25 18  07 12 34.256   +79 34 06.61  .65828 1.4181 117.7 21.9 382' 166
2022 11 25 19  07 12 38.970   +79 35 17.40  .65831 1.4182 117.7 21.9 383' 166
2022 11 25 20  07 12 43.673   +79 36 28.12  .65835 1.4182 117.7 21.9 384' 166
2022 11 25 21  07 12 48.365   +79 37 38.76  .65838 1.4182 117.7 21.9 384' 167
2022 11 25 22  07 12 53.047   +79 38 49.33  .65842 1.4182 117.7 21.9 385' 167
2022 11 25 23  07 12 57.718   +79 39 59.82  .65845 1.4182 117.7 21.9 386' 167
2022 11 26 00  07 13 02.378   +79 41 10.24  .65849 1.4182 117.7 21.9 387' 167
2022 11 26 01  07 13 07.026   +79 42 20.59  .65852 1.4182 117.7 21.9 388' 167
2022 11 26 02  07 13 11.664   +79 43 30.86  .65856 1.4182 117.7 21.9 389' 167
2022 11 26 03  07 13 16.291   +79 44 41.05  .65859 1.4183 117.7 21.9 390' 168
2022 11 26 04  07 13 20.907   +79 45 51.18  .65863 1.4183 117.7 21.9 391' 168
2022 11 26 05  07 13 25.511   +79 47 01.22  .65866 1.4183 117.7 21.9 392' 168
2022 11 26 06  07 13 30.105   +79 48 11.20  .65870 1.4183 117.6 21.9 392' 168
2022 11 26 07  07 13 34.686   +79 49 21.10  .65874 1.4183 117.6 21.9 393' 168
2022 11 26 08  07 13 39.257   +79 50 30.92  .65877 1.4183 117.6 21.9 394' 168
2022 11 26 09  07 13 43.816   +79 51 40.67  .65881 1.4183 117.6 21.9 395' 169
2022 11 26 10  07 13 48.363   +79 52 50.35  .65884 1.4184 117.6 21.9 396' 169
2022 11 26 11  07 13 52.899   +79 53 59.95  .65888 1.4184 117.6 21.9 397' 169
2022 11 26 12  07 13 57.423   +79 55 09.47  .65892 1.4184 117.6 21.9 397' 169
2022 11 26 13  07 14 01.936   +79 56 18.92  .65896 1.4184 117.6 21.9 398' 169
2022 11 26 14  07 14 06.437   +79 57 28.30  .65899 1.4184 117.6 21.9 399' 169
2022 11 26 15  07 14 10.925   +79 58 37.60  .65903 1.4184 117.6 21.9 400' 170
2022 11 26 16  07 14 15.402   +79 59 46.83  .65907 1.4184 117.6 21.9 401' 170
2022 11 26 17  07 14 19.867   +80 00 55.98  .65910 1.4185 117.6 21.9 401' 170
2022 11 26 18  07 14 24.320   +80 02 05.06  .65914 1.4185 117.6 21.9 402' 170
2022 11 26 19  07 14 28.761   +80 03 14.06  .65918 1.4185 117.6 21.9 403' 170
2022 11 26 20  07 14 33.189   +80 04 22.99  .65922 1.4185 117.6 21.9 404' 170
2022 11 26 21  07 14 37.606   +80 05 31.84  .65925 1.4185 117.6 21.9 405' 171
2022 11 26 22  07 14 42.010   +80 06 40.62  .65929 1.4185 117.6 21.9 405' 171
2022 11 26 23  07 14 46.401   +80 07 49.32  .65933 1.4185 117.6 21.9 406' 171
2022 11 27 00  07 14 50.780   +80 08 57.95  .65937 1.4186 117.6 21.9 407' 171
2022 11 27 01  07 14 55.147   +80 10 06.50  .65941 1.4186 117.6 21.9 408' 171
2022 11 27 02  07 14 59.501   +80 11 14.98  .65944 1.4186 117.6 21.9 408' 171
2022 11 27 03  07 15 03.842   +80 12 23.38  .65948 1.4186 117.6 21.9 409' 172
2022 11 27 04  07 15 08.170   +80 13 31.70  .65952 1.4186 117.6 21.9 410' 172
2022 11 27 05  07 15 12.486   +80 14 39.96  .65956 1.4186 117.6 21.9 411' 172
2022 11 27 06  07 15 16.789   +80 15 48.13  .65960 1.4186 117.6 21.9 411' 172
2022 11 27 07  07 15 21.079   +80 16 56.23  .65964 1.4187 117.6 21.9 412' 172
2022 11 27 08  07 15 25.356   +80 18 04.26  .65968 1.4187 117.6 21.9 413' 172
2022 11 27 09  07 15 29.619   +80 19 12.21  .65972 1.4187 117.6 21.9 413' 173
2022 11 27 10  07 15 33.870   +80 20 20.08  .65976 1.4187 117.6 21.9 414' 173
2022 11 27 11  07 15 38.107   +80 21 27.88  .65980 1.4187 117.6 21.9 415' 173
2022 11 27 12  07 15 42.331   +80 22 35.61  .65984 1.4187 117.6 21.9 415' 173